Simultaneous Nadir Overpasses (SNOs) Predictions

Prediction of SNOs between GOES-16 and AQUA Satellite Orbit:

Table of predicted SNOs for the next 14.0 days since TLE Epoch: 1/7/2023
Index Date Time (GOES-16) GOES-16 Lat,Lon AQUA Lat,Lon Distance(km) Time Diff (sec)
1 01/07/2023 06:51:13 -0.04, -75.19 0.27, -76.54 153.34 80
2 01/09/2023 06:35:30 -0.03, -75.20 -0.45, -73.36 209.72 80
3 01/09/2023 18:56:40 0.04, -75.20 -0.66, -78.49 373.50 80
4 01/11/2023 18:43:36 0.04, -75.22 0.04, -75.31 9.51 80
5 01/13/2023 18:33:11 0.04, -75.24 0.71, -72.12 355.80 80
6 01/14/2023 06:54:12 -0.04, -75.25 0.37, -77.21 222.75 80
7 01/16/2023 06:38:27 -0.03, -75.28 -0.28, -74.02 143.10 80
8 01/16/2023 18:59:36 0.03, -75.28 -0.80, -79.15 439.72 80
9 01/18/2023 18:46:30 0.02, -75.31 -0.12, -75.96 73.38 80
10 01/20/2023 18:36:03 -0.01, -75.34 0.54, -72.76 293.47 80
